Home   Weather   Medan   Past weeks

Flag for Indonesia Past Weather in Medan, North Sumatra, Indonesia — Yesterday and Last 2 Weeks

Now
75 °F

Passing clouds.


Feels Like: 74 °F
Forecast: 76 / 84 °F
Wind: 6 mph from West

Location: Medan / Polonia

Current Time: Dec 10, 2016 at 12:27:27 am

Latest Report: Dec 10, 2016 at 12:00 am


Visibility: 4 mi

Pressure: 29.80 "Hg

Humidity: 94%

Dew Point: 73 °F

Location of MedanLocation

Past Weather in Medan — Graph

°F

Medan Temperature Yesterday

Maximum temperature yesterday: 88 °F (at 1:30 pm)
Minimum temperature yesterday: 75 °F (at 12:00 am)
Average temperature yesterday: 81 °F

High & Low Weather Summary for the Past Weeks

 TemperatureHumidityPressure
High91 °F (Dec 6, 12:30 pm)100% (Nov 25, 7:30 am)29.92 "Hg (Nov 25, 7:30 am)
Low73 °F (Dec 1, 1:30 pm)56% (Dec 6, 4:00 pm)29.65 "Hg (Nov 25, 3:30 pm)
Average81 °F87%29.78 "Hg
* Reported Nov 24 11:00 pm — Dec 9 11:00 pm, Medan, Weather by CustomWeather, © 2016

Note: Actual official high and low records may vary slightly from our data, if they occured in-between our weather recording intervals... More about our weather records

Advertising

Medan Weather History for the Previous 24 Hours

Scroll right to see more
 ConditionsComfort  
Time TempWeatherWind HumidityBarometerVisibility
11:00 pm
Fri, Dec 9
77 °FPassing clouds.3 mph89%29.83 "Hg4 mi
10:30 pm77 °FThunderstorms. Passing clouds.No wind89%29.83 "Hg4 mi
10:00 pm77 °FThunderstorms. Passing clouds.6 mph83%29.83 "Hg4 mi
9:30 pm77 °FPassing clouds.8 mph83%29.80 "Hg4 mi
9:00 pm79 °FPassing clouds.15 mph84%29.80 "Hg4 mi
8:30 pm82 °FPassing clouds.6 mph89%29.80 "Hg4 mi
7:30 pm82 °FPassing clouds.No wind84%29.74 "Hg4 mi
7:00 pm82 °FPassing clouds.No wind84%29.74 "Hg5 mi
6:30 pm84 °FPassing clouds.5 mph74%29.71 "Hg5 mi
6:00 pm84 °FScattered clouds.3 mph79%29.71 "Hg5 mi
5:00 pm86 °FScattered clouds.5 mph75%29.68 "HgN/A
4:00 pm86 °FPassing clouds.8 mph70%29.68 "HgN/A
3:30 pm86 °FScattered clouds.8 mph70%29.68 "HgN/A
3:00 pm86 °FScattered clouds.8 mph75%29.68 "HgN/A
2:00 pm86 °FScattered clouds.6 mph79%29.71 "HgN/A
1:30 pm88 °FScattered clouds.8 mph70%29.71 "HgN/A
1:00 pm86 °FScattered clouds.9 mph75%29.71 "HgN/A
12:30 pm86 °FScattered clouds.7 mph75%29.74 "HgN/A
12:00 pm86 °FScattered clouds.7 mph75%29.74 "HgN/A
11:30 am86 °FScattered clouds.6 mph79%29.77 "HgN/A
11:00 am86 °FScattered clouds.3 mph75%29.77 "HgN/A
10:00 am82 °FPassing clouds.No wind84%29.77 "Hg5 mi
9:30 am82 °FScattered clouds.3 mph84%29.77 "Hg5 mi
9:00 am81 °FScattered clouds.No wind89%29.77 "Hg3 mi
8:30 am79 °FScattered clouds.3 mph94%29.77 "Hg2 mi
6:30 am77 °FFog.5 mph94%29.77 "Hg1 mi
6:00 am77 °FHaze.No wind94%29.74 "Hg3 mi
5:30 am77 °FHaze.No wind94%29.74 "Hg3 mi
5:00 am77 °FPassing clouds.No wind94%29.71 "Hg4 mi
4:30 am77 °FPassing clouds.6 mph94%29.71 "Hg4 mi
4:00 am77 °FFog.8 mph94%29.71 "Hg2 mi
3:30 am77 °FFog.6 mph100%29.71 "Hg2 mi
3:00 am75 °FFog.6 mph100%29.71 "Hg2 mi
2:30 am75 °FFog.No wind100%29.74 "Hg2 mi
2:00 am75 °FPassing clouds.No wind100%29.77 "Hg2 mi
1:30 am77 °FPassing clouds.5 mph94%29.77 "Hg4 mi
1:00 am75 °FPassing clouds.6 mph100%29.80 "Hg4 mi
12:00 am75 °FPassing clouds.5 mph94%29.80 "HgN/A
Weather by CustomWeather, © 2016

See weather overviewHow to use our weather pages